Temp
20 20 21 21 20 20 21 22 22 23 23 23 23 23 22 22 22 22 22 21 20 19 19 19 20 20 19 19 19 19 19 19 19 19 19 18 18 18 18 18 18 18 18 19 19 18 18 18 18 18 18 18 18 18 17 17 17 17 17 17 17 17 17 17 17 17 17 17 17 17 18 18 17 17 17 17 17 17 17 17 17 17 17 17 18
20 20 21 20 20 20 21 22 22 23 22 23 23 23 22 22 22 22 21 20 19 19 19 19 19 19 19 19 19 19 19 19 19 19 19 18 18 19 19 19 18 18 18 19 19 19 19 18 18 18 18 18 18 18 17 17 17 17 17 17 17 17 17 17 17 17 17 17 17 17 18 18 18 17 17 17 17 17 17 17 17 17 17 17 17
21 20 21 20 20 20 20 21 22 22 22 23 23 22 22 22 22 22 21 19 19 19 19 18 18 19 19 19 19 19 19 19 19 19 19 19 19 19 19 18 18 18 19 19 19 19 18 18 18 18 18 18 18 17 17 17 17 17 17 17 17 17 17 17 17 17 17 17 17 17 17 18 18 17 17 17 17 17 17 17 17 17 17 17 17
21 20 20 20 20 20 20 21 22 22 22 23 23 22 22 22 22 21 20 19 19 19 19 19 18 19 19 19 19 19 19 19 19 19 19 19 19 19 18 18 19 19 19 19 18 18 18 18 18 18 18 18 18 18 17 17 17 17 17 17 17 17 17 17 17 17 17 17 17 17 17 17 18 17 17 17 17 17 17 17 17 17 17 17 17
20 20 20 20 20 20 20 21 22 22 22 23 22 22 22 22 22 21 20 20 19 19 19 19 19 19 19 19 19 19 19 19 20 19 19 19 19 19 19 19 19 19 18 18 18 18 18 18 18 18 18 18 18 18 18 17 17 17 17 17 17 17 17 17 16 16 17 17 17 17 17 17 17 17 17 17 17 17 17 17 17 17 17 17 17
20 20 20 20 19 20 21 21 22 22 22 22 22 21 22 22 22 21 21 20 20 19 19 19 19 19 19 19 19 19 19 19 19 19 19 19 19 19 19 19 18 18 18 18 18 18 18 18 18 18 18 18 18 18 17 17 17 17 17 17 17 17 17 17 16 16 17 17 17 17 17 17 17 17 17 17 17 17 17 17 17 16 16 16 16
20 20 20 20 20 19 20 21 22 22 22 22 21 21 22 21 21 21 21 21 20 20 20 19 19 19 19 19 19 19 19 19 19 19 19 19 19 19 19 18 18 18 18 18 18 18 18 18 18 18 18 18 18 17 17 17 17 17 17 17 17 17 17 17 17 16 16 17 17 16 17 17 17 17 17 17 17 17 17 17 17 16 16 16 16
20 20 20 20 20 19 20 21 22 22 22 22 21 21 21 21 21 21 21 21 20 20 20 19 19 19 19 19 19 19 19 19 19 19 19 19 19 19 19 18 18 18 18 18 18 18 18 18 18 18 18 18 17 17 17 17 17 17 17 17 17 17 17 17 16 16 16 16 17 16 16 17 17 17 17 16 17 17 17 17 17 16 16 16 16
20 20 20 21 20 20 20 21 22 22 22 22 21 20 20 20 20 20 20 20 20 20 20 19 19 19 19 19 19 19 18 19 19 19 19 19 18 18 19 18 18 18 18 18 18 18 18 18 18 18 18 17 17 17 17 17 17 17 17 17 18 18 18 17 17 17 16 16 16 16 16 17 16 16 16 16 16 16 16 16 16 16 16 16 16
20 20 20 20 20 20 20 21 22 22 22 21 20 20 20 20 20 20 20 20 20 20 20 19 19 19 19 19 19 19 19 18 18 18 18 18 18 18 18 18 18 18 18 18 18 18 18 18 18 18 18 18 18 18 18 18 18 18 18 18 18 18 18 18 17 17 16 16 16 16 16 16 16 16 16 16 16 16 16 16 16 16 16 16 16
20 20 20 20 20 20 20 21 22 22 21 20 20 20 20 20 20 20 20 20 20 20 19 19 19 19 19 19 19 19 18 18 18 18 18 18 18 18 18 18 18 18 18 18 18 18 18 18 18 18 18 18 18 18 18 18 18 18 18 18 18 19 18 18 17 17 16 16 16 16 16 16 16 16 16 16 16 16 16 16 16 16 16 16 16
20 20 20 20 20 20 20 21 21 21 21 20 19 19 20 20 20 20 20 20 20 19 19 19 19 19 19 19 19 18 18 18 18 18 18 18 18 18 18 18 18 18 18 18 18 19 19 19 19 19 18 18 18 18 18 18 18 18 18 18 18 18 18 18 18 17 16 16 16 16 16 16 16 16 16 16 16 16 16 16 16 16 16 15 15
20 20 20 19 19 20 20 21 21 21 20 19 19 19 19 20 20 20 20 20 20 20 20 19 19 19 19 19 19 19 18 18 18 18 18 18 18 18 18 18 18 18 18 18 18 18 19 19 19 19 19 18 18 18 18 18 18 18 18 18 18 18 18 18 18 17 16 16 16 16 16 16 16 16 16 16 16 16 16 16 15 15 15 15 15
19 19 19 19 19 20 20 20 20 20 20 19 19 19 19 20 20 20 20 20 20 20 20 20 19 19 19 19 19 19 19 19 19 19 19 18 18 18 18 18 18 18 18 18 18 19 19 19 19 19 19 19 19 19 18 18 18 18 18 18 18 18 18 18 18 17 17 16 17 16 16 16 16 16 16 16 16 16 16 15 15 15 15 15 15
20 19 19 19 19 19 19 20 20 20 19 19 19 19 19 19 20 20 20 20 20 20 20 20 19 19 19 19 19 19 19 19 19 19 19 19 19 18 18 18 18 18 18 18 19 19 19 19 19 19 19 19 19 19 19 18 18 18 18 18 18 18 18 18 18 18 17 17 16 16 16 16 16 16 16 16 16 16 16 15 15 15 15 15 15
20 19 19 19 19 19 19 19 20 19 19 19 19 19 20 19 20 20 20 20 20 20 20 20 19 19 19 19 19 19 19 19 19 19 19 19 19 18 18 18 18 18 18 18 19 19 20 20 20 20 19 19 19 19 19 18 18 18 18 18 18 18 18 18 18 18 17 17 16 16 16 16 16 16 16 15 15 15 15 15 15 15 15 15 15
20 20 19 19 19 19 19 19 19 19 19 19 19 19 19 19 20 20 20 20 20 20 19 19 19 19 19 19 18 19 19 19 19 18 19 19 18 18 18 18 18 18 18 18 18 19 19 20 20 20 20 20 19 19 19 18 18 18 18 18 18 18 18 18 18 18 17 17 17 16 16 16 15 15 16 15 15 15 15 15 15 15 15 14 14
19 19 19 19 19 19 18 19 19 19 19 19 19 19 19 19 19 20 20 20 20 19 19 19 19 19 19 18 18 19 19 18 18 18 18 18 18 18 18 18 18 18 18 18 18 18 19 20 20 20 20 20 19 19 19 18 18 18 18 18 18 18 18 18 18 18 18 17 17 16 16 16 15 15 15 15 15 15 15 15 15 15 14 14 14
19 19 19 19 19 19 19 18 19 19 19 19 19 19 19 19 19 19 20 20 19 19 19 19 19 19 19 19 19 19 19 18 18 18 18 18 18 18 18 18 18 17 17 17 17 17 18 19 20 20 20 20 20 19 19 18 18 18 19 18 18 18 18 19 19 18 18 17 17 16 16 16 15 15 15 15 15 15 15 15 14 14 14 14 14
18 19 19 19 19 19 18 18 19 19 18 19 19 19 19 19 19 19 19 19 19 19 19 19 19 18 18 18 18 18 18 18 18 18 18 19 19 18 18 18 17 17 17 17 17 17 17 18 19 20 20 20 20 19 19 18 18 19 19 19 18 18 18 19 19 18 18 17 17 17 16 16 15 15 15 15 15 15 15 14 14 14 14 14 14
18 18 18 18 18 18 18 18 18 18 18 18 18 18 18 18 19 19 19 19 19 19 19 18 18 18 18 18 19 19 18 18 18 18 18 19 19 19 18 18 17 17 17 17 17 17 17 18 18 19 19 19 19 19 19 18 18 19 19 19 19 19 19 19 19 18 18 18 17 17 16 16 15 16 15 15 15 15 14 14 14 14 14 14 14
18 18 18 18 18 18 18 18 18 18 18 18 18 18 18 18 19 19 19 18 18 18 18 18 18 18 18 18 18 18 18 18 18 18 18 19 19 19 19 18 17 17 17 17 17 17 17 17 17 18 18 18 18 19 18 18 18 19 19 19 19 19 19 19 19 18 18 18 17 16 16 16 16 16 15 15 15 15 14 14 14 14 14 14 14
18 18 18 18 18 18 18 18 18 18 18 18 18 18 18 18 19 19 18 18 18 18 18 18 18 18 18 18 18 18 18 18 18 18 18 19 19 19 18 18 17 17 17 17 16 17 17 17 18 18 18 18 18 18 18 18 18 19 19 19 19 19 19 19 19 18 18 17 17 16 16 16 16 16 15 15 15 15 14 14 14 14 14 14 14
18 18 18 18 18 18 18 18 18 18 18 18 18 18 18 19 19 18 18 18 18 18 18 18 18 18 18 18 18 18 18 18 18 18 18 18 18 18 18 18 18 18 17 17 17 17 17 17 18 18 18 18 18 18 18 18 18 18 19 19 19 19 19 19 19 18 18 17 17 16 16 16 16 16 15 15 15 15 15 14 14 14 14 14 14
18 18 18 18 18 18 18 18 18 18 18 18 18 18 18 18 18 18 18 18 18 18 19 19 18 18 18 18 18 18 18 18 18 18 18 18 18 18 18 18 18 18 17 17 17 17 17 17 18 18 18 18 18 18 18 18 19 18 19 19 19 19 19 19 18 18 17 17 16 16 16 16 16 16 16 15 15 15 15 15 14 14 14 14 14
18 18 18 18 18 18 18 18 18 17 17 18 18 18 18 18 18 18 18 18 18 19 19 18 18 18 18 18 18 18 18 18 18 18 18 18 18 18 18 19 18 18 17 17 17 17 17 18 18 18 18 18 18 18 18 19 19 19 19 19 19 18 18 18 18 18 17 17 16 16 16 16 16 16 16 15 15 15 15 16 15 15 14 14 14
17 17 18 18 18 18 18 18 17 17 18 18 18 18 18 18 18 18 18 18 19 19 19 18 18 18 18 18 18 19 19 19 18 18 18 18 18 18 18 19 18 18 17 17 17 18 18 18 18 18 19 19 19 19 19 19 19 19 19 19 19 18 18 18 18 18 17 17 16 16 16 16 16 16 16 15 15 15 15 16 16 15 15 14 14
17 17 17 17 17 17 17 17 17 17 18 18 18 18 18 18 18 18 18 19 19 19 19 18 18 18 18 18 18 19 19 18 18 18 18 19 18 18 18 18 18 17 17 17 18 18 18 18 19 19 19 19 19 19 19 20 20 20 19 19 18 18 18 18 18 18 17 16 16 16 16 16 16 16 16 16 15 15 15 16 15 15 15 14 14
17 17 17 17 17 17 17 17 17 17 18 18 18 18 18 18 18 18 18 18 19 19 19 18 18 18 18 18 18 18 18 18 18 18 18 18 18 18 18 18 17 17 17 18 18 18 18 18 19 19 19 19 19 19 20 20 20 19 19 19 18 18 18 18 18 17 17 16 16 16 16 16 16 16 16 16 15 15 15 15 15 15 15 15 15
17 17 17 17 17 17 17 17 17 17 18 18 18 18 18 18 18 18 18 19 19 19 19 19 19 19 18 18 18 18 18 18 18 18 18 18 17 17 17 18 17 17 17 17 18 18 18 18 18 18 19 19 19 19 20 20 19 19 19 19 18 18 18 18 18 17 16 16 16 16 16 16 16 16 16 15 15 15 15 15 15 15 15 15 15
17 17 16 17 17 17 17 17 17 17 18 18 18 18 18 18 18 18 18 19 19 19 19 19 19 19 18 18 18 18 18 18 18 18 17 17 17 17 17 18 17 17 17 17 18 18 18 18 18 18 18 19 19 19 20 20 19 19 19 19 18 18 18 18 17 17 16 16 16 16 16 16 16 16 16 15 15 15 15 15 15 15 15 15 15
17 17 16 16 17 17 17 17 17 17 17 18 18 18 18 18 18 18 18 19 19 19 19 19 19 19 18 18 18 18 18 17 17 17 17 17 17 17 17 17 17 17 17 17 17 18 18 18 18 18 18 18 19 19 19 19 19 19 18 18 18 18 18 18 17 17 17 16 16 16 16 16 16 16 16 16 16 15 15 15 15 15 15 15 15
17 17 16 16 16 17 17 16 17 17 17 18 18 18 18 18 18 18 19 19 19 19 19 19 19 18 18 18 18 18 17 17 17 17 17 17 17 17 17 17 17 17 17 17 17 18 18 18 18 18 18 18 19 19 19 19 19 19 18 18 18 18 18 17 17 17 17 16 16 16 16 16 16 16 16 16 16 15 16 15 15 16 15 15 15
17 17 17 16 16 16 17 16 16 17 17 17 18 18 18 18 18 18 19 19 19 19 19 19 18 18 18 18 17 17 17 17 17 17 17 17 17 17 17 17 17 17 17 17 17 18 18 18 18 17 17 18 18 19 19 19 19 18 18 17 17 17 17 17 17 17 17 16 16 16 16 16 16 16 16 16 15 15 15 15 15 16 15 15 15
17 17 17 17 17 17 17 16 16 17 17 17 18 18 18 18 18 18 19 19 19 18 18 18 18 18 18 18 17 17 17 17 17 17 17 17 17 17 17 17 17 17 17 17 17 17 17 17 17 17 17 18 18 18 18 19 18 17 17 17 17 17 17 17 17 17 16 16 16 16 16 16 16 16 16 16 16 15 15 15 15 15 15 15 15
18 17 17 17 17 17 17 17 16 16 17 17 18 18 18 18 18 18 18 19 19 18 18 18 18 18 18 17 17 17 17 17 17 17 17 17 17 17 17 17 17 17 17 16 17 17 17 17 17 17 17 18 18 18 18 18 18 17 16 16 16 17 17 17 16 16 16 16 16 16 16 16 16 16 16 16 16 15 15 15 15 15 15 15 15
18 17 17 17 17 17 17 17 17 17 17 17 18 18 18 18 18 18 18 18 18 18 18 18 18 18 18 17 17 17 17 17 17 17 17 17 16 16 16 16 16 17 16 16 16 17 17 17 17 17 17 18 18 18 17 17 17 16 16 16 16 16 16 16 16 16 16 16 15 15 15 15 16 16 16 16 16 16 15 15 15 15 15 15 15
18 18 17 17 17 17 17 17 17 17 17 17 17 18 18 18 18 18 18 18 18 18 18 18 18 18 18 17 17 17 17 17 16 16 16 16 16 16 16 16 16 16 16 16 16 16 16 17 17 17 17 18 18 18 17 16 16 16 15 15 15 15 16 16 16 16 16 16 15 15 15 15 16 16 16 16 16 16 15 15 15 15 15 15 15
18 17 17 17 17 17 17 17 17 17 17 17 17 17 17 17 17 18 18 18 18 18 18 18 18 18 17 17 17 17 17 16 16 16 16 16 16 16 16 16 16 16 16 16 16 16 16 16 17 17 17 17 17 17 17 16 16 15 15 15 15 15 15 16 16 16 16 16 16 16 16 15 15 15 16 16 16 15 15 15 15 15 15 15 15
17 16 17 17 17 17 17 17 17 17 18 17 17 17 17 17 17 17 17 17 17 17 17 17 17 17 17 17 17 17 17 16 16 16 16 16 16 16 16 16 16 16 16 16 16 16 16 16 16 17 16 16 16 16 17 17 16 14 14 14 15 15 15 15 15 15 15 15 16 16 16 15 15 15 16 16 15 15 15 15 15 15 15 15 15
16 16 16 17 17 17 17 17 17 18 18 18 17 17 17 17 16 17 17 17 17 18 17 17 17 17 17 17 17 16 16 16 16 16 16 16 16 16 16 16 16 16 16 16 16 16 16 16 16 16 16 16 15 15 16 16 15 14 14 14 14 15 15 15 15 15 15 15 15 16 16 15 15 15 16 16 15 15 15 15 15 15 15 15 15
16 16 16 16 17 17 17 17 17 18 18 18 18 18 18 17 17 17 17 17 18 18 17 17 17 17 17 17 17 16 16 16 16 16 16 16 16 16 16 16 16 16 16 16 16 16 16 16 16 16 15 16 15 15 15 16 15 14 14 14 14 14 14 14 15 15 15 15 15 15 16 15 15 15 16 15 15 15 15 15 15 15 14 15 15
16 16 16 16 16 16 17 17 17 18 18 18 18 18 18 18 18 18 18 18 17 18 18 18 17 17 17 17 17 17 17 16 16 16 16 16 16 16 16 16 16 16 16 16 15 16 16 15 16 16 16 15 15 15 15 16 15 15 15 15 14 14 15 14 14 14 15 14 14 15 15 15 14 15 16 15 14 15 14 14 14 14 14 15 15
16 17 16 16 16 16 17 17 18 18 18 18 18 18 18 18 18 18 18 18 18 18 18 18 18 17 17 17 17 17 17 16 16 16 16 16 16 16 16 16 16 16 16 16 15 15 16 15 16 16 16 15 15 15 16 15 15 15 15 14 14 14 15 14 14 14 14 14 14 15 15 14 14 15 16 15 14 14 14 14 14 14 15 15 15
17 17 16 16 16 16 17 17 18 18 18 18 17 17 18 18 17 17 17 17 17 17 17 17 17 17 17 17 17 17 17 17 16 16 16 16 16 16 16 16 16 16 16 16 16 16 16 16 16 16 16 16 15 15 16 15 16 16 16 15 14 15 15 14 14 14 14 14 14 14 14 14 14 14 15 14 14 15 15 14 14 14 15 15 15
17 16 16 17 17 17 17 17 18 18 18 18 17 17 18 18 17 17 17 17 17 17 17 18 17 17 17 17 17 17 17 17 16 16 16 16 16 16 16 16 16 16 16 16 16 16 16 16 16 16 16 17 17 16 16 16 16 16 16 16 16 16 15 14 14 14 14 14 14 14 14 14 14 14 14 14 14 15 15 14 14 15 15 15 15
17 16 15 16 16 16 17 17 18 18 18 18 18 17 18 18 17 18 18 17 17 17 17 18 18 18 17 17 17 17 17 17 17 16 16 16 16 16 16 16 16 16 16 16 16 16 16 16 15 15 16 16 17 17 16 16 16 15 16 16 16 16 16 15 14 14 14 14 14 14 14 14 14 14 14 15 15 15 15 14 15 15 15 15 15
16 16 15 16 16 17 17 17 18 17 18 18 18 17 18 18 18 18 18 18 18 18 18 18 18 18 18 17 17 17 17 17 17 17 17 17 16 16 16 16 16 16 16 16 16 16 16 16 16 15 15 16 16 17 17 16 16 16 16 16 16 16 16 16 15 15 14 14 14 14 13 14 14 14 15 15 15 15 15 15 15 15 15 15 15
16 15 16 16 17 17 18 18 17 17 17 18 17 17 18 18 18 18 18 18 18 18 18 18 18 18 18 18 17 17 17 17 17 17 17 17 17 17 17 16 16 16 16 16 16 16 16 16 16 15 15 15 16 16 16 17 17 16 16 16 16 15 15 16 15 15 14 14 14 14 13 14 14 14 14 15 15 15 15 15 15 15 15 15 15
16 16 16 16 16 17 17 18 17 17 17 18 17 17 18 18 18 18 18 18 18 18 18 18 18 18 18 18 17 17 17 17 17 17 17 17 17 17 17 17 17 16 16 16 16 16 16 16 16 16 15 16 16 16 16 17 17 16 16 16 16 15 15 15 15 15 15 14 14 13 13 13 13 12 13 14 14 15 15 15 15 15 15 15 15
15 15 15 15 15 16 17 17 17 17 17 17 17 17 18 18 18 18 18 18 18 18 18 18 17 18 18 17 17 17 17 17 17 17 17 17 17 17 18 17 17 17 17 17 17 16 16 16 16 16 16 16 16 16 16 16 17 17 16 16 16 16 16 16 15 16 15 14 14 13 13 13 13 12 13 14 14 15 15 15 15 15 15 15 15
Height
766 768 769 771 772 773 774 775 776 777 779 779 780 781 782 783 783 783 784 785 786 787 788 789 790 791 792 794 795 795 796 797 798 799 801 802 802 803 803 804 805 806 807 808 809 809 810 810 811 811 812 813 813 814 814 815 815 815 816 816 816 816 816 816 817 817 816 816 816 817 817 816 816 815 815 815 816 816 816 816 816 815 815 815 815
764 767 769 771 772 773 774 775 777 778 779 780 781 782 783 784 784 784 785 786 787 788 789 790 791 793 794 795 796 797 798 798 799 800 802 802 803 804 804 805 806 808 809 809 810 811 811 811 812 812 813 814 814 815 815 815 816 817 817 817 818 818 818 818 818 818 818 818 818 818 818 818 818 817 817 817 817 817 817 817 817 817 817 816 816
763 767 769 771 772 773 775 776 777 779 780 780 782 783 784 785 785 785 786 787 788 789 790 791 792 794 795 796 797 798 798 799 800 801 802 803 804 805 805 806 807 809 810 811 811 812 813 813 813 814 815 815 816 816 816 816 817 818 818 819 819 819 819 819 819 819 819 819 819 819 819 820 819 819 818 818 819 818 819 819 818 818 818 818 817
763 766 769 771 771 773 775 776 778 779 780 781 782 783 785 785 786 786 787 788 788 790 791 792 793 794 795 796 798 798 799 800 801 802 803 804 805 805 807 808 809 810 811 812 812 813 814 815 815 815 816 817 817 817 817 818 818 819 819 820 820 820 820 820 821 821 821 821 821 821 820 821 821 820 820 820 820 820 820 820 820 819 819 819 819
764 766 768 770 771 773 775 777 778 779 780 781 783 784 785 786 787 787 788 788 789 790 791 793 794 795 796 797 798 799 800 801 802 803 804 805 806 807 808 809 810 811 812 813 814 814 815 816 816 817 818 818 818 818 819 819 819 820 820 821 821 821 822 822 823 822 822 822 822 822 822 822 822 822 822 822 822 822 821 821 821 821 821 821 820
764 766 768 770 771 773 775 777 778 780 781 782 783 784 786 787 787 788 788 789 790 791 792 793 795 796 797 798 799 800 801 802 803 804 805 806 807 808 809 810 811 812 813 814 815 815 816 817 818 818 819 820 820 820 820 820 820 821 821 822 822 822 823 823 824 824 823 823 823 823 823 823 823 823 823 823 823 823 823 823 823 822 822 822 821
764 766 767 769 771 774 776 777 778 780 781 783 784 785 786 787 788 788 789 790 791 792 793 794 795 797 798 799 800 801 802 803 804 805 806 807 808 809 810 811 812 813 814 815 815 816 817 818 819 820 820 821 821 821 822 821 822 822 823 823 823 824 824 824 825 825 824 824 824 824 824 824 824 824 825 825 825 825 824 825 824 824 823 823 823
765 766 768 769 771 774 776 778 779 780 782 783 784 786 787 788 789 789 790 791 792 793 794 795 796 798 799 800 801 802 803 803 804 805 807 808 809 810 811 812 813 813 814 815 816 817 818 819 820 821 821 822 823 823 823 823 823 824 824 824 824 824 824 825 826 826 826 825 825 825 825 825 825 825 826 826 826 826 826 826 826 825 825 825 824
766 767 768 770 771 774 776 778 780 781 783 784 785 787 788 789 790 791 792 793 794 794 795 797 798 799 801 802 802 803 804 804 805 806 808 809 810 811 812 812 813 814 815 815 816 817 819 820 821 821 822 823 823 824 824 824 824 825 825 825 824 825 825 826 826 827 827 826 826 826 826 826 826 826 827 827 827 827 827 827 827 827 826 826 826
766 767 769 770 772 775 777 779 780 782 783 785 787 788 790 791 792 792 794 794 795 796 797 798 800 801 802 803 804 805 805 806 806 807 808 810 811 811 812 813 814 815 815 816 816 817 819 820 821 822 823 823 824 825 825 825 826 826 825 825 825 825 825 826 827 828 828 827 827 828 827 827 827 827 828 828 828 828 828 828 829 829 828 828 827
766 767 769 771 773 775 777 780 781 783 784 786 788 790 791 792 793 794 795 796 797 798 799 800 801 803 804 804 805 806 807 807 808 809 809 810 811 812 813 814 815 815 816 817 817 817 818 820 821 822 823 824 825 826 826 826 826 826 825 825 825 826 825 827 828 829 829 829 829 829 829 829 829 829 829 829 829 829 829 830 830 830 829 829 829
766 768 770 772 774 777 778 780 782 784 785 787 789 791 792 793 794 795 796 797 798 799 800 801 803 804 805 806 807 808 808 809 810 810 810 811 812 813 814 815 815 816 817 817 818 818 819 820 822 823 824 825 826 827 827 827 827 827 826 826 827 827 827 828 829 829 830 830 830 831 831 831 830 830 830 830 829 829 830 830 831 831 830 830 830
767 768 770 773 775 778 779 781 783 785 787 789 790 792 793 794 795 796 797 798 799 800 801 802 804 805 806 807 808 809 810 810 811 811 812 812 813 814 815 816 816 817 817 818 819 819 820 821 822 823 825 826 827 827 828 828 828 827 827 828 828 828 828 829 829 830 831 831 831 832 832 832 832 831 831 830 830 830 830 831 831 831 831 831 831
767 769 771 774 776 779 780 783 784 786 788 789 791 792 794 795 796 796 798 799 800 801 802 803 805 806 808 809 810 810 811 811 812 812 813 813 814 815 815 816 817 818 818 819 819 820 821 821 823 824 825 826 827 828 828 828 828 828 828 829 829 829 829 830 830 831 832 832 832 833 833 833 833 832 832 832 831 831 831 831 832 831 831 832 832
767 769 772 774 776 780 782 784 785 786 788 790 792 793 794 795 796 797 798 799 800 801 803 804 806 807 808 810 811 811 812 813 813 814 814 815 815 816 816 817 818 818 819 819 819 820 821 822 823 824 825 826 827 828 829 829 829 829 829 829 830 830 830 831 832 832 832 833 833 833 834 834 834 834 833 833 833 832 832 832 832 832 832 832 833
768 770 772 775 777 780 782 784 785 787 789 791 792 793 794 795 797 798 799 800 801 802 803 805 807 808 810 811 812 813 813 814 815 815 816 816 817 817 818 818 819 819 819 820 820 820 821 822 824 825 826 826 827 829 829 830 830 830 830 830 831 832 832 832 833 833 833 833 833 834 834 835 835 835 835 834 834 834 834 833 833 833 833 833 834
769 770 772 775 778 780 782 785 786 788 790 791 793 794 795 796 798 799 800 801 801 803 804 806 807 809 810 812 813 814 814 815 816 816 817 817 818 818 819 820 820 820 820 820 820 821 821 822 823 825 826 827 827 829 829 830 830 830 831 831 832 833 834 834 834 834 834 834 834 834 835 835 836 836 836 836 836 835 835 835 835 835 834 834 834
770 771 773 776 778 781 783 785 787 789 791 792 794 795 796 797 799 800 801 802 802 803 805 806 808 810 811 812 814 815 815 816 816 817 818 818 819 819 820 820 821 821 821 821 821 821 821 822 823 824 825 826 827 828 829 830 831 831 831 831 832 833 834 835 835 835 835 835 835 835 835 836 837 837 838 838 838 838 838 837 837 836 835 835 835
771 773 774 777 779 782 784 786 788 789 791 793 795 796 797 798 800 801 802 803 803 804 806 807 809 810 812 813 814 815 816 817 817 818 819 819 820 820 820 821 821 822 822 822 822 822 822 822 823 824 825 826 827 828 830 830 831 831 832 832 832 834 835 835 835 835 835 835 836 836 836 837 837 838 839 839 839 840 840 840 839 838 837 837 836
772 774 776 778 779 782 784 786 788 790 792 793 795 797 799 800 801 802 803 804 805 806 807 809 810 812 813 814 815 816 816 817 818 819 819 820 820 821 821 821 822 822 822 822 823 823 822 822 823 824 825 827 827 828 830 830 831 832 832 832 833 834 835 835 836 836 836 836 836 837 837 838 838 839 840 840 841 841 842 842 841 840 839 838 838
773 775 776 778 780 782 784 786 788 790 792 794 797 798 800 801 802 803 804 805 806 807 809 810 812 813 814 814 815 816 817 818 819 819 820 821 821 821 821 821 822 823 823 823 824 823 823 823 823 824 825 827 828 828 830 830 831 832 832 832 833 834 835 836 836 836 836 837 837 838 839 839 840 840 841 841 841 842 842 843 843 842 841 840 839
773 774 776 778 780 782 784 786 788 791 793 795 797 799 801 801 803 804 805 806 807 809 810 811 813 813 814 815 816 817 818 819 819 820 821 821 821 821 822 822 823 823 823 824 826 825 823 823 824 824 825 826 827 828 829 830 831 831 832 832 833 834 835 836 837 837 837 837 838 839 840 840 841 841 841 842 842 843 843 844 844 844 843 842 842
771 774 776 778 780 782 785 787 789 791 793 795 797 799 801 802 803 804 805 807 808 809 810 812 813 814 815 816 817 818 819 820 820 821 821 821 822 822 822 823 823 823 824 825 827 826 824 823 824 825 825 826 827 828 829 830 831 831 832 832 833 834 836 837 838 838 838 838 838 839 840 841 842 842 843 843 843 844 844 845 845 845 845 844 844
772 774 777 779 781 783 785 788 789 791 793 795 797 799 801 802 803 804 805 806 808 809 810 812 813 815 816 816 818 819 820 820 821 822 822 822 822 823 823 823 824 824 825 826 827 827 825 824 824 825 826 826 827 828 829 830 831 831 832 833 833 835 836 837 838 838 838 839 839 840 840 841 842 843 844 844 844 844 845 845 846 846 846 846 846
773 775 777 779 782 784 786 788 790 792 794 796 797 799 801 802 803 804 805 806 808 809 811 812 814 815 816 817 818 819 820 821 821 822 822 822 823 823 824 824 825 825 825 826 827 827 826 825 825 826 826 827 827 828 829 830 831 832 833 833 834 835 837 838 839 839 839 840 841 841 841 841 842 843 844 845 845 845 845 845 846 846 847 847 848
775 776 778 780 782 784 786 788 790 792 794 796 798 800 801 802 803 804 805 807 808 810 811 813 814 816 817 818 818 819 821 821 822 822 822 823 823 824 824 825 826 826 826 827 827 827 827 826 826 826 827 827 828 829 829 830 831 832 833 834 835 836 837 839 839 839 840 841 842 842 842 842 843 843 845 845 846 846 846 846 846 847 847 848 849
776 778 779 781 783 785 787 788 790 793 795 796 798 799 801 802 803 804 806 807 808 810 811 813 814 816 817 818 819 820 821 822 822 822 823 823 824 824 825 826 827 827 827 827 827 827 827 827 827 827 827 828 829 829 830 830 831 832 833 834 835 837 838 839 839 840 840 841 842 843 843 843 843 844 845 846 846 847 847 847 847 847 848 849 850
778 779 780 782 784 786 787 789 791 792 794 796 798 799 800 802 803 804 806 807 809 810 812 813 815 816 817 818 819 820 821 822 822 823 823 824 824 825 826 826 827 827 828 828 827 827 827 827 828 828 828 828 829 830 830 831 831 832 833 834 835 837 838 839 839 840 841 841 842 843 844 844 845 844 845 846 846 847 848 848 848 848 849 849 850
778 778 780 782 784 785 787 789 790 792 794 796 798 799 800 801 803 804 806 807 809 811 813 814 815 816 818 819 819 820 820 821 822 823 824 824 825 825 826 827 827 827 828 828 828 828 828 828 828 828 828 829 829 830 830 831 831 832 833 834 835 836 837 838 839 840 841 842 842 843 844 845 846 846 845 846 847 848 848 849 849 850 850 850 851
777 778 780 781 783 785 786 788 790 792 794 795 797 799 800 801 803 804 805 807 809 812 813 814 816 816 817 818 819 820 820 821 822 823 824 824 825 826 827 827 827 828 828 828 828 828 828 828 828 828 829 829 830 830 830 831 831 832 833 834 835 836 837 839 840 841 842 843 843 844 845 846 847 847 847 846 847 848 849 849 850 850 851 851 852
775 777 779 780 782 783 785 787 789 791 793 795 797 799 800 802 803 804 805 807 810 811 813 814 815 816 817 818 819 820 820 821 822 823 824 825 826 827 827 827 828 828 828 828 828 829 828 828 828 829 829 830 830 830 830 831 831 833 834 834 835 836 838 839 840 842 843 843 844 845 846 847 848 848 848 847 848 849 850 850 850 851 852 852 853
774 775 777 778 779 781 783 786 788 791 793 795 797 799 800 802 803 804 805 807 809 811 812 814 815 816 817 818 819 820 821 822 823 823 824 825 826 827 827 828 828 828 828 829 829 829 829 829 829 829 830 830 830 831 831 831 832 833 833 834 835 836 838 839 841 842 843 843 844 845 846 847 848 849 849 848 848 850 850 851 851 852 852 853 853
772 774 775 776 777 779 781 783 786 789 792 795 797 799 800 801 803 803 805 806 808 810 811 813 814 816 817 818 819 820 822 822 823 824 824 825 826 827 828 828 828 828 828 829 829 829 829 829 829 830 830 830 831 831 831 832 832 833 833 834 836 837 838 840 841 842 843 843 844 845 847 848 849 850 850 849 849 850 851 852 852 853 853 853 854
771 773 774 775 777 778 779 781 784 787 790 794 796 798 799 801 802 803 804 805 807 809 811 812 814 815 817 818 820 821 822 823 824 824 825 825 826 827 828 828 829 829 829 829 829 829 829 829 830 830 830 831 831 831 832 832 833 833 834 835 837 838 839 840 842 842 843 844 845 846 848 849 850 850 850 850 851 851 852 853 853 854 854 855 855
769 771 773 774 776 778 779 779 782 786 789 792 795 797 798 799 801 802 804 805 807 809 810 812 814 815 817 818 820 822 823 824 824 825 825 826 827 828 828 829 829 829 829 829 829 829 829 829 830 830 831 831 832 832 832 833 833 834 835 836 838 839 840 841 842 843 843 844 846 847 848 849 850 850 851 851 851 852 852 853 854 855 855 856 856
768 769 772 774 776 777 779 779 781 784 787 791 793 795 797 799 801 802 804 805 807 809 810 812 814 816 817 819 820 822 823 824 824 825 826 826 827 828 828 829 829 829 829 829 829 829 829 829 830 831 831 832 832 832 832 833 834 835 836 837 838 839 840 841 842 843 844 845 847 848 849 850 850 851 851 852 852 853 853 854 854 855 855 856 856
767 768 769 772 774 776 778 779 781 783 786 789 792 795 797 799 800 802 804 806 808 809 811 812 814 816 817 819 820 822 823 824 824 825 826 826 827 828 828 829 829 829 829 829 830 830 830 830 830 831 831 832 832 832 833 833 834 835 837 838 839 840 841 842 843 844 845 846 847 849 849 850 850 851 851 852 853 853 853 854 855 855 856 856 857
767 767 769 772 774 776 779 780 781 782 785 788 792 795 798 800 801 803 804 806 808 809 811 813 814 816 817 819 820 821 823 824 824 825 826 826 827 828 828 828 829 829 829 830 830 830 830 830 830 831 832 832 832 832 833 834 835 836 837 839 840 841 842 843 843 844 845 846 848 849 849 850 850 851 851 852 853 853 854 854 855 856 856 856 857
768 770 772 775 776 778 780 781 781 782 784 788 792 795 798 800 802 803 805 806 808 809 811 813 814 816 817 819 820 821 823 823 824 825 826 826 827 827 828 828 829 829 829 830 830 830 830 830 831 831 832 832 833 833 833 834 835 837 838 840 841 842 843 843 844 845 846 846 847 848 849 850 851 851 852 852 853 854 854 855 856 856 856 857 857
772 774 777 778 779 779 780 781 781 781 783 787 791 795 797 800 802 802 804 806 807 809 811 813 814 816 817 819 820 821 822 823 824 825 826 826 826 827 827 828 829 829 830 830 830 830 830 830 831 831 832 833 834 834 834 834 835 838 840 841 842 843 844 844 845 846 847 847 848 848 849 850 851 851 852 852 853 854 854 855 856 856 856 857 857
777 780 781 782 781 780 780 781 781 781 783 786 790 793 796 798 801 802 803 805 807 809 811 813 814 816 817 819 820 821 822 823 824 825 825 825 826 827 827 828 828 829 830 830 830 831 831 831 831 832 832 833 834 835 836 836 836 839 841 842 843 844 845 845 846 846 847 847 848 849 849 850 851 852 852 853 853 854 854 855 855 856 856 857 857
781 783 784 783 783 782 782 783 782 782 783 786 789 793 795 797 799 801 803 805 807 808 810 812 814 816 817 819 820 821 822 823 824 824 825 825 826 826 827 828 828 829 830 830 830 831 831 831 831 832 833 834 835 836 837 837 838 839 841 843 845 846 846 846 847 847 848 848 849 849 850 850 851 852 853 853 854 854 855 855 855 856 856 857 857
779 781 782 784 784 784 785 785 783 783 784 787 790 793 795 798 800 802 804 805 807 808 810 812 814 816 817 819 820 821 822 823 824 824 825 825 825 826 826 827 828 829 830 830 830 831 831 832 832 832 833 834 835 836 837 838 838 840 841 844 846 847 847 847 848 849 849 849 849 849 850 850 851 853 853 853 854 854 855 855 856 856 857 857 858
775 774 776 780 783 785 786 787 786 785 786 788 791 794 796 798 800 803 804 806 807 808 810 813 815 816 817 818 820 821 822 823 824 824 824 825 825 825 826 827 828 829 830 830 830 831 831 831 832 832 833 834 836 836 837 838 838 839 841 845 847 848 849 849 849 850 850 849 850 850 851 851 852 853 852 852 853 854 855 855 856 857 857 858 858
773 770 771 774 777 781 784 786 787 786 787 789 792 795 797 798 800 803 805 806 807 809 810 812 814 816 817 818 819 821 822 823 823 824 824 824 825 825 825 826 827 828 829 830 830 830 831 831 832 833 833 834 835 836 837 838 838 839 840 843 846 848 849 849 850 851 851 850 851 851 851 852 852 853 852 853 854 855 856 856 857 858 858 858 859
771 770 771 771 772 776 780 784 786 786 788 790 793 795 796 798 800 802 804 806 807 809 810 812 814 816 817 818 820 821 822 823 823 824 824 824 825 825 826 826 827 828 829 829 830 830 831 831 832 833 833 834 835 835 836 837 838 839 839 840 842 845 846 848 851 853 852 852 852 852 852 853 854 854 854 855 855 856 857 858 859 859 859 860 860
768 768 770 772 773 775 779 782 785 786 788 790 793 795 796 798 800 802 803 806 807 809 811 813 815 816 818 819 821 822 822 823 824 824 824 825 825 826 826 827 827 828 829 829 829 830 830 831 832 833 833 834 834 834 835 836 837 838 839 840 840 841 843 845 848 851 853 854 854 854 854 855 856 856 856 857 857 858 859 860 860 860 860 861 861
767 768 769 771 773 775 778 781 784 786 788 791 794 795 797 798 800 802 804 806 808 810 812 814 815 817 818 820 821 822 823 824 824 824 825 825 826 826 826 827 827 828 828 829 829 830 830 831 832 832 833 834 834 834 835 836 836 838 839 840 840 841 842 843 845 847 851 854 856 856 856 857 858 858 859 859 859 860 860 861 861 861 862 862 862
767 768 768 770 772 773 776 779 783 786 788 791 794 796 797 799 800 802 804 806 809 810 812 814 815 816 818 820 821 822 823 824 825 825 825 825 826 826 826 827 827 827 828 828 829 829 830 830 830 831 832 833 834 834 835 835 836 837 839 840 840 841 842 844 845 847 849 853 856 857 858 859 859 860 861 861 862 862 862 863 863 863 863 863 863
767 768 769 772 774 774 776 779 782 785 788 792 794 796 798 800 801 803 805 807 809 811 813 814 815 816 818 820 821 823 824 824 825 825 825 826 826 826 826 827 827 827 827 828 828 829 829 830 830 831 832 833 833 834 834 835 835 837 838 839 839 840 842 843 845 847 848 851 855 857 859 860 861 863 864 863 864 864 865 864 864 864 864 864 865
767 769 771 773 776 776 777 779 782 785 788 791 794 796 799 800 802 804 805 807 809 811 813 814 815 817 818 820 821 823 824 824 825 825 825 826 826 826 826 827 827 827 827 827 828 828 828 829 830 831 831 832 833 833 834 835 835 836 837 838 838 839 839 841 843 845 847 850 854 858 860 861 863 864 865 866 866 866 866 866 866 865 865 865 866
Wind_Speed
20 20 19 19 19 21 22 24 23 22 21 20 22 23 23 22 22 22 22 23 25 25 26 27 26 26 26 25 24 24 24 24 25 25 26 25 24 24 23 22 22 21 20 19 19 19 18 18 19 21 22 23 23 23 23 23 23 23 22 21 20 20 19 20 20 19 19 19 18 17 17 16 16 18 20 19 17 17 18 19 18 19 18 19 21
23 21 21 20 21 21 23 24 23 23 21 21 22 23 23 22 22 23 24 24 24 24 24 26 25 24 25 24 24 24 25 25 27 27 26 25 24 24 23 23 22 21 20 20 20 20 19 20 21 23 24 24 23 23 23 23 24 23 21 20 20 19 20 20 19 18 19 20 19 18 17 16 16 17 19 19 18 17 17 18 18 19 18 19 21
24 23 22 21 22 22 23 24 24 23 22 22 22 24 23 22 23 23 25 25 24 25 25 26 26 25 25 25 25 25 25 25 27 27 26 25 24 23 23 23 22 21 21 20 20 20 19 20 22 24 24 23 22 22 23 23 23 22 20 20 20 20 20 20 20 19 19 20 20 18 17 16 15 16 18 19 18 17 17 17 17 18 17 18 20
26 24 23 22 22 22 23 24 24 23 22 22 23 24 23 23 24 24 25 26 26 26 26 26 27 26 25 25 24 24 24 24 24 24 24 23 22 22 22 22 22 21 20 20 19 19 18 19 21 22 22 21 21 21 22 21 21 20 19 18 18 20 20 18 18 19 20 20 20 19 18 17 15 15 17 18 18 17 16 17 17 16 16 17 18
27 26 25 24 22 23 24 25 25 24 23 22 24 24 23 23 25 25 25 26 27 27 27 27 26 25 24 24 23 22 22 22 22 22 22 21 21 20 20 20 20 20 20 19 18 17 18 20 20 20 20 20 20 20 20 19 19 19 18 17 15 17 19 17 14 16 19 20 20 19 18 18 16 14 15 16 16 15 15 16 17 16 15 15 16
28 27 26 25 24 24 24 26 25 24 23 23 24 25 24 24 25 26 26 26 27 27 27 26 25 23 23 23 22 22 22 22 22 22 22 21 20 18 18 18 18 19 19 18 17 17 19 20 19 19 19 19 19 18 18 18 17 16 16 15 13 11 12 15 13 12 16 19 19 19 18 17 16 15 14 13 14 14 14 15 15 14 14 14 14
29 29 27 26 25 25 25 27 25 24 23 23 24 25 24 24 25 26 26 26 26 26 26 25 24 23 22 21 22 22 23 23 22 22 21 20 19 18 18 18 18 17 18 17 16 17 19 19 18 18 18 17 17 17 17 16 15 14 13 12 10 8 6 10 13 11 14 17 18 19 18 17 17 16 14 13 13 13 13 14 13 12 13 13 13
29 29 28 27 26 25 26 27 25 24 23 23 24 25 24 24 25 25 26 26 25 25 24 23 22 21 20 20 21 22 23 24 23 22 20 19 19 19 18 18 17 17 17 16 16 18 18 18 17 17 17 17 16 16 16 15 14 12 11 9 7 6 5 7 10 10 12 16 18 18 18 18 17 16 14 14 14 12 12 12 12 11 12 12 13
29 28 28 28 27 26 27 27 25 24 23 24 24 24 23 23 24 24 24 24 24 23 22 22 21 20 19 20 21 23 23 23 23 22 21 20 20 19 19 18 18 17 16 16 17 17 17 17 17 16 16 16 16 15 15 14 13 11 9 8 5 4 6 8 10 10 12 14 15 15 16 18 17 15 14 14 14 13 13 12 12 12 12 12 12
29 28 28 28 27 26 27 27 26 24 23 24 24 24 23 23 22 23 23 23 22 21 20 19 19 19 19 19 20 22 22 22 21 21 21 20 20 19 19 18 17 16 15 15 17 17 17 17 17 17 17 17 16 15 14 13 12 11 9 7 5 5 9 12 11 11 12 13 13 14 17 18 17 16 15 15 14 13 13 13 12 12 13 13 12
28 28 28 28 27 26 27 27 25 24 23 24 24 23 22 22 22 22 22 22 21 20 19 18 18 18 18 19 19 20 21 21 21 20 20 19 19 18 18 17 15 15 14 15 17 17 17 17 18 18 17 16 16 14 13 12 12 11 9 8 7 9 13 13 12 11 12 13 14 17 18 17 17 16 16 15 15 15 14 14 14 14 14 14 13
28 29 28 26 25 26 27 27 25 24 23 24 23 22 22 22 21 21 21 21 21 19 18 18 18 17 17 18 19 19 20 20 20 19 18 18 19 18 17 16 15 15 15 16 16 16 17 18 18 17 17 16 15 14 13 12 12 12 9 9 10 12 14 13 12 12 13 13 15 18 18 16 16 15 15 15 15 16 15 15 14 14 14 14 14
28 29 28 26 25 26 27 26 25 23 23 23 23 22 21 22 21 20 21 21 20 19 18 18 18 17 16 17 18 18 17 18 17 17 17 18 18 17 17 17 15 14 14 14 14 16 18 18 18 17 16 15 14 13 12 11 12 12 10 10 12 13 13 12 13 13 13 14 16 18 17 16 15 14 14 14 14 15 15 14 14 14 14 15 14
28 28 27 26 25 25 26 26 24 23 24 23 22 22 22 21 20 20 20 19 20 19 19 18 18 17 16 16 16 16 15 16 16 16 16 16 16 16 17 16 15 13 13 14 14 15 17 18 17 16 15 14 13 12 12 12 13 13 11 12 12 13 12 12 13 13 13 14 15 16 15 14 13 14 14 14 14 14 14 14 13 13 14 15 14
29 28 27 26 25 24 25 25 24 24 24 23 23 22 22 21 20 20 19 19 19 19 18 18 17 16 16 16 15 15 15 15 15 15 15 14 14 14 15 15 14 13 13 14 14 15 16 17 16 16 14 13 12 12 12 12 13 13 11 12 12 12 11 12 13 12 13 14 14 13 14 14 12 13 13 13 14 14 14 13 13 13 13 14 14
29 28 27 26 25 24 24 24 24 25 24 24 23 22 22 21 20 20 19 19 19 18 18 18 17 16 16 15 15 15 15 15 15 14 14 13 14 14 14 14 13 14 13 13 14 15 16 16 16 15 13 12 12 12 11 11 12 13 11 11 12 12 11 11 12 12 13 13 12 12 12 13 12 12 12 12 13 13 13 12 13 13 14 13 12
28 27 27 26 25 25 24 23 23 23 23 23 22 22 21 20 20 19 19 19 18 18 18 17 16 16 16 15 15 15 15 14 14 13 13 13 13 13 13 13 12 12 13 12 12 13 15 16 15 14 12 11 11 11 11 11 12 13 11 10 12 12 10 10 11 13 13 12 11 11 11 11 12 12 11 11 12 12 12 12 12 12 13 13 12
26 27 27 26 26 25 24 23 22 23 23 22 21 20 20 20 19 19 18 18 18 17 17 17 16 16 15 15 15 14 14 13 13 13 12 12 12 12 12 12 11 12 11 11 11 11 13 14 14 13 12 11 11 11 11 11 12 13 11 9 12 12 11 9 11 12 12 12 11 11 11 11 11 12 11 11 11 11 11 11 11 12 12 12 12
26 26 26 26 26 25 24 23 23 24 24 23 21 19 19 19 18 18 18 17 16 16 16 16 16 16 15 14 14 13 13 13 13 12 12 11 11 10 10 10 10 11 11 10 11 10 10 12 12 12 12 11 10 10 11 11 11 12 11 9 11 13 12 10 10 11 11 11 11 12 11 11 11 11 11 10 10 10 9 9 9 11 12 12 12
25 24 25 26 26 26 25 24 24 24 24 23 21 19 18 18 17 17 16 15 15 16 15 16 16 16 15 15 15 14 13 13 13 12 12 11 10 10 10 10 9 10 10 10 10 10 10 10 11 11 10 10 10 10 10 10 10 11 11 10 12 13 12 10 10 10 11 11 11 12 11 11 11 10 10 10 10 9 8 8 8 10 10 11 12
24 24 25 27 26 26 26 25 25 25 24 22 20 18 17 17 17 17 16 15 14 15 15 16 16 16 16 15 15 15 14 13 13 12 12 11 11 11 11 11 10 10 10 9 9 9 10 9 8 8 8 8 9 10 10 9 9 10 10 10 13 14 13 11 10 11 11 11 11 11 11 12 11 8 8 9 9 8 8 8 8 9 9 10 11
25 25 26 27 26 27 26 26 26 25 25 22 21 19 18 18 18 17 16 15 14 15 16 16 16 16 15 15 15 14 14 13 13 12 12 11 11 12 12 12 10 10 11 9 8 9 11 11 9 8 8 8 9 10 10 8 8 9 10 10 13 14 13 11 10 11 11 11 11 11 11 12 10 8 8 9 8 8 8 7 7 7 7 9 11
26 27 26 27 27 27 26 26 26 25 24 22 21 20 19 19 18 17 17 16 16 16 16 16 15 15 14 14 14 13 13 12 11 11 11 11 12 12 12 12 12 11 11 10 8 8 10 11 10 9 9 9 10 10 8 8 8 9 11 12 14 15 14 12 10 10 11 11 11 11 11 12 11 10 9 9 6 7 7 7 6 6 8 9 9
26 28 27 27 27 27 26 26 26 25 24 23 22 20 20 19 18 18 18 18 17 16 16 15 14 14 14 14 14 12 11 11 10 10 10 11 12 12 12 12 12 11 10 9 7 7 9 10 9 9 10 10 10 9 7 7 8 9 11 12 14 16 14 12 11 10 11 12 12 12 12 12 11 10 9 8 7 6 6 6 6 7 8 8 8
26 29 28 27 27 27 27 26 25 25 25 24 22 20 20 19 18 19 18 18 18 17 15 13 13 13 14 14 13 12 11 12 12 10 10 10 11 11 11 11 10 10 9 9 8 7 8 9 9 9 9 9 9 8 6 6 8 9 10 11 13 15 14 13 12 11 12 12 13 13 13 13 12 10 9 8 7 6 5 5 7 7 8 7 7
25 27 27 26 27 27 27 26 25 24 24 23 21 20 21 20 19 19 18 18 17 16 14 13 13 13 13 13 13 12 12 12 12 11 10 9 9 9 9 9 9 9 8 8 8 8 8 8 8 8 8 8 7 5 4 5 7 9 10 10 12 15 15 13 12 12 13 13 13 13 13 13 13 11 9 8 7 5 4 5 7 7 8 8 7
22 23 25 26 26 26 26 26 25 23 24 22 21 21 21 20 20 19 18 18 17 16 15 14 13 12 12 12 12 12 11 12 12 11 9 9 8 8 8 8 8 8 7 7 7 7 6 6 6 6 7 5 4 3 3 4 6 9 11 10 12 15 15 13 12 13 13 13 13 12 13 14 13 11 10 9 7 5 6 7 8 9 9 9 8
20 22 25 26 25 26 25 25 24 23 23 22 22 22 21 20 20 19 18 18 17 16 15 13 12 11 11 11 11 11 11 11 12 11 9 8 8 8 8 7 7 6 6 6 7 7 5 4 4 5 5 4 2 3 3 4 6 9 10 10 12 15 16 14 13 14 14 14 13 12 13 14 11 11 10 8 7 6 8 9 10 10 9 9 8
20 22 23 25 25 25 25 25 24 23 23 23 23 23 21 20 20 19 18 18 16 15 14 13 12 11 11 11 11 11 11 11 11 11 9 9 9 8 7 6 5 4 4 5 6 6 5 4 5 4 4 3 3 3 4 4 7 8 9 10 12 14 16 15 14 14 14 14 13 12 14 13 11 10 10 8 8 8 8 8 9 10 9 9 9
22 23 22 23 24 24 26 26 24 23 23 24 24 23 21 20 20 19 18 17 15 14 13 13 12 12 12 11 11 10 11 11 11 11 10 10 9 7 6 5 4 3 3 4 4 4 4 6 6 4 5 5 4 5 5 6 8 8 8 9 11 13 15 15 15 15 15 14 12 12 14 13 10 8 8 9 9 8 8 6 7 8 8 9 9
23 24 22 23 24 23 24 26 25 23 23 24 23 22 21 20 19 18 17 15 14 13 13 13 13 12 12 11 11 10 10 10 11 10 10 9 8 7 6 5 4 3 2 4 5 4 5 7 7 5 6 6 6 7 6 7 9 9 9 10 11 13 15 15 16 16 15 14 12 13 14 12 10 7 7 8 9 8 7 5 5 6 6 8 9
23 24 23 24 26 24 24 24 24 24 23 23 22 21 20 19 18 17 16 15 14 13 13 14 13 13 12 10 10 10 10 10 10 10 10 9 8 7 6 6 5 4 4 5 5 5 5 6 6 6 7 8 8 8 8 9 10 11 11 11 12 14 16 16 16 16 15 14 13 15 14 11 10 8 7 7 8 9 8 5 5 6 5 5 6
23 24 23 25 26 25 25 23 24 24 23 23 22 21 20 19 18 18 17 15 14 14 14 14 13 13 12 10 10 10 10 10 11 10 10 9 8 7 7 7 6 5 6 6 5 5 4 5 6 7 8 9 10 10 10 10 11 11 11 12 13 14 16 16 15 15 14 14 14 15 14 11 10 9 7 8 9 9 9 7 4 7 8 5 6
23 23 23 24 25 25 25 24 24 24 23 23 22 22 21 20 20 19 18 16 14 14 14 14 13 13 13 11 11 11 10 10 10 10 10 9 8 8 8 8 8 6 6 5 5 5 5 5 6 8 9 9 10 12 11 11 11 11 12 13 14 15 15 15 14 14 14 13 13 13 13 11 10 10 8 8 8 8 9 9 6 7 9 7 6
23 23 22 23 24 24 24 24 24 24 23 23 23 23 22 21 21 19 19 18 15 13 14 14 13 12 12 11 10 10 10 10 10 10 9 8 8 8 8 8 8 7 6 5 5 6 6 5 6 8 10 10 11 13 13 12 12 13 14 14 14 14 14 14 14 14 13 13 13 12 12 11 10 10 8 8 9 8 8 9 7 6 5 5 4
24 24 22 22 24 24 24 25 25 24 24 24 24 23 23 22 21 20 19 19 16 13 13 13 12 11 10 10 9 8 9 10 11 10 9 8 8 8 9 9 8 7 6 5 6 7 7 7 7 8 11 12 13 14 13 13 14 14 15 15 14 14 14 15 14 14 13 12 12 11 11 10 9 10 9 9 10 8 7 7 7 5 4 4 3
26 25 25 25 26 26 25 25 25 25 24 24 24 23 23 23 22 20 19 18 16 13 12 12 11 10 9 8 8 8 9 10 11 11 10 9 9 8 9 9 9 8 7 6 6 7 8 9 9 9 11 12 14 15 14 14 14 15 15 15 14 14 15 15 13 13 12 11 11 11 10 10 9 9 9 8 8 7 6 6 6 5 3 2 2
26 27 27 28 28 27 25 25 25 25 24 24 23 22 23 22 22 20 18 16 14 12 12 12 11 10 8 7 7 8 8 10 12 12 11 9 8 8 8 8 8 7 7 8 8 9 9 10 11 11 11 13 14 15 15 16 16 15 14 13 13 13 13 13 12 12 11 11 10 10 10 9 9 9 9 8 7 6 6 6 6 4 3 1 1
26 26 26 27 26 26 25 25 26 25 24 23 22 22 22 22 21 20 18 15 13 13 12 11 11 10 8 7 8 9 9 11 13 12 10 9 8 9 8 7 7 7 8 8 9 10 11 12 12 13 13 13 14 16 17 17 16 15 14 12 11 11 12 12 11 11 11 11 11 11 10 10 9 9 9 9 7 6 6 6 5 4 2 1 3
22 22 23 23 25 26 27 27 27 26 25 24 23 23 22 21 20 19 18 16 14 13 12 11 10 9 8 8 9 9 9 11 11 9 8 9 9 8 7 6 6 7 7 8 10 11 12 13 13 14 15 15 15 16 18 19 18 16 14 12 11 9 10 11 11 11 10 10 10 11 11 11 10 10 9 9 8 7 6 5 4 3 1 1 2
14 16 18 20 24 27 28 28 28 27 26 26 25 24 23 22 20 19 18 16 15 13 12 11 9 8 8 9 10 9 10 10 9 8 8 8 8 8 7 7 7 7 7 8 10 12 12 13 14 14 15 17 18 17 18 20 18 15 12 12 12 10 8 8 9 8 8 10 11 10 11 11 11 11 10 9 8 7 6 5 4 2 2 2 3
10 10 11 16 21 23 26 28 28 27 25 25 25 25 24 22 20 19 18 17 16 14 12 11 9 8 8 9 9 9 10 9 9 8 8 7 8 9 8 8 8 8 7 9 11 12 13 13 15 15 15 18 18 18 19 15 11 11 10 10 9 8 7 6 6 5 5 8 10 10 9 10 12 12 9 8 8 7 6 5 4 4 5 5 4
14 13 10 12 17 20 23 26 27 26 24 24 25 25 24 21 18 17 17 17 16 14 11 10 9 8 8 8 8 8 8 8 8 8 7 7 8 8 9 8 9 9 9 12 13 12 13 13 14 15 16 17 16 19 17 9 9 13 11 6 3 3 4 5 7 5 2 4 7 8 8 8 10 10 8 8 8 7 7 6 6 7 7 6 6
23 26 21 17 17 19 21 23 25 25 24 25 25 24 22 19 17 16 16 15 14 13 11 10 10 8 8 7 7 6 6 7 7 7 7 7 7 8 9 9 10 9 9 11 13 14 13 13 14 14 16 18 16 17 12 7 13 13 7 3 2 2 1 2 7 8 4 3 3 3 3 4 8 8 7 7 7 8 8 9 9 8 7 7 9
27 28 26 25 23 23 24 23 25 24 24 25 23 22 21 19 16 15 15 14 12 13 13 13 11 10 9 8 7 6 5 5 5 6 6 6 7 8 8 9 10 9 9 10 12 13 13 13 13 12 15 17 16 18 12 8 14 11 5 5 4 1 1 3 6 6 5 5 4 2 2 6 9 9 9 9 9 9 9 10 10 8 7 9 9
30 28 25 29 29 28 28 26 26 25 24 25 22 21 20 19 17 16 16 15 13 14 15 15 14 12 10 9 8 6 5 4 5 5 6 7 7 7 8 9 9 9 9 9 10 11 12 12 11 10 13 14 15 18 14 11 15 10 5 5 1 1 5 7 4 2 5 6 5 4 6 9 11 10 10 11 10 11 10 9 9 8 8 8 8
31 28 24 27 28 28 29 28 27 26 25 25 23 21 21 20 18 18 18 17 16 15 15 15 14 12 10 9 8 7 6 6 6 6 7 7 7 6 7 7 8 8 9 10 9 10 11 11 10 9 11 14 15 17 14 13 17 12 7 7 3 2 10 10 5 2 3 4 5 7 9 10 9 9 10 10 10 12 11 9 8 8 8 8 7
29 26 25 28 29 29 30 29 27 26 26 26 24 23 22 21 20 19 19 18 17 15 15 15 13 12 11 11 10 9 9 8 8 9 9 8 7 6 6 7 8 9 8 9 9 8 9 10 11 9 11 15 15 16 15 15 18 14 9 7 4 4 12 11 10 9 5 2 4 7 10 12 10 10 11 11 12 12 11 9 8 8 7 7 7
28 27 29 32 33 32 31 30 27 25 25 25 25 24 21 21 21 20 19 18 17 16 15 15 13 13 13 11 10 11 10 10 9 9 8 8 7 5 6 7 8 8 8 8 8 8 8 10 12 11 12 16 15 15 16 18 20 17 11 7 5 9 11 9 12 14 8 4 3 4 9 13 11 11 13 14 13 12 11 9 8 7 7 7 6
28 28 29 28 28 30 31 29 26 24 24 25 26 23 20 21 22 22 21 20 19 17 17 15 14 14 12 11 11 11 11 10 10 9 8 7 6 4 6 8 8 8 7 8 8 9 8 9 11 12 13 15 14 13 14 16 19 18 14 10 11 12 10 8 12 13 9 6 4 5 9 12 10 10 13 15 13 12 11 9 7 7 7 7 7
25 24 24 21 20 24 28 28 24 23 24 25 25 22 20 22 23 23 23 22 20 20 19 17 14 14 13 12 13 12 11 11 10 10 9 8 6 4 5 8 9 8 8 8 8 9 9 9 10 12 13 14 13 13 12 14 17 18 16 13 14 16 12 10 14 16 12 9 8 6 9 13 12 11 12 14 14 12 10 9 7 7 7 8 8
Wind_Direction
155 155 157 155 152 149 148 147 146 145 141 136 135 132 130 130 128 127 126 124 124 124 124 126 127 126 124 121 120 119 120 121 122 123 121 117 115 115 113 112 111 111 110 107 106 105 104 105 105 106 107 108 106 104 102 100 99 96 92 90 90 86 84 85 85 84 84 83 86 90 91 87 78 81 89 90 89 88 89 89 87 83 81 81 80
152 155 157 155 154 150 149 148 148 147 142 139 137 135 133 133 131 129 128 124 122 122 122 122 122 123 121 120 120 120 120 121 121 121 118 116 115 113 112 112 111 111 110 109 109 107 105 105 107 110 109 108 107 105 104 102 101 97 94 92 89 86 85 86 86 87 85 86 89 92 93 88 78 78 88 90 88 88 88 88 87 82 79 79 79
148 154 155 154 153 149 150 149 150 148 143 142 140 138 135 135 132 129 128 124 122 122 124 124 121 123 122 122 121 120 119 119 118 116 115 115 113 109 110 112 112 113 111 111 110 108 105 105 110 112 110 108 107 106 105 105 103 98 97 95 93 88 87 85 85 91 92 94 95 94 94 92 85 79 83 86 85 85 87 87 85 82 81 81 81
147 152 153 153 152 149 152 152 151 148 145 145 143 139 136 135 130 128 128 126 126 125 126 126 124 124 124 123 122 121 120 119 117 115 114 114 111 107 109 111 113 115 114 111 109 110 108 108 112 113 110 108 108 108 107 108 105 101 101 98 97 88 82 80 81 92 98 100 98 96 96 96 93 85 82 82 83 84 87 86 81 80 82 81 80
147 151 153 152 151 152 154 154 153 149 147 147 145 140 137 135 129 128 129 129 129 127 128 127 124 121 121 121 121 123 122 121 120 118 117 116 113 109 109 110 111 113 114 111 110 112 111 111 113 112 110 109 108 107 107 109 107 106 108 106 103 89 79 81 82 90 100 105 103 101 100 98 98 96 90 85 86 85 81 78 77 79 79 77 78
148 152 153 152 153 155 156 155 153 150 149 149 146 142 140 136 131 130 131 132 131 130 130 128 123 120 121 122 123 124 123 122 121 119 116 114 112 111 111 111 110 110 113 111 110 112 112 113 112 112 110 109 109 108 109 109 109 109 113 115 115 102 82 85 91 93 100 107 107 104 100 98 99 99 97 91 90 89 82 78 80 83 81 77 77
148 150 152 153 154 156 157 156 154 151 151 152 148 143 142 138 133 132 134 135 133 132 132 130 125 123 124 125 126 126 125 125 122 118 117 116 115 114 114 114 112 111 113 113 111 112 113 114 113 112 109 108 110 110 109 109 110 108 109 113 114 112 92 88 98 103 102 105 109 106 102 100 100 98 96 94 96 93 87 83 81 81 81 80 79
147 151 152 152 154 157 157 156 155 153 154 154 149 144 143 138 135 135 136 136 136 135 135 134 128 126 127 128 128 128 128 127 127 125 123 120 116 116 115 116 116 114 114 114 113 114 116 115 114 113 112 112 112 111 109 107 109 106 103 103 106 116 118 105 107 115 109 108 113 111 109 108 104 100 94 92 98 95 91 92 83 75 78 82 81
148 151 152 152 154 156 157 157 156 156 156 155 149 144 142 139 138 137 137 138 137 137 137 135 131 129 129 130 129 130 131 130 131 128 125 122 121 122 122 124 120 116 115 114 113 115 117 116 117 117 117 116 113 112 110 107 104 100 95 96 111 124 122 127 129 127 118 113 114 109 109 113 107 100 96 95 97 94 97 101 90 75 74 79 81
149 152 154 153 153 157 159 159 158 158 157 154 148 144 142 140 139 138 138 139 138 137 135 133 131 131 131 131 130 131 131 131 130 127 127 126 127 127 130 132 126 118 114 114 113 115 118 121 124 124 121 118 114 111 106 102 96 86 81 92 108 104 113 132 139 129 122 117 111 102 102 109 106 100 99 98 96 93 95 95 86 76 74 81 86
150 152 154 153 153 158 159 159 159 158 156 152 148 145 144 142 139 139 140 140 140 138 135 133 133 133 133 133 131 131 132 130 130 130 130 130 129 129 132 133 125 117 112 113 111 113 122 127 130 128 124 118 113 107 100 94 86 75 76 96 105 105 114 126 129 124 122 113 106 107 105 104 102 101 102 100 97 95 94 91 86 82 80 86 89
151 152 152 152 154 159 159 160 160 157 155 151 149 147 145 142 140 141 142 142 143 140 138 138 136 136 136 135 135 135 135 134 134 135 133 132 132 131 131 129 123 119 114 114 109 111 124 130 130 128 124 118 110 103 97 89 78 71 79 104 113 115 117 119 120 120 117 107 104 110 109 105 103 104 105 104 101 98 95 94 91 86 84 86 87
151 152 151 153 156 159 160 161 161 157 154 151 150 148 146 143 142 143 144 144 145 144 144 144 140 137 138 138 138 138 139 139 140 140 137 136 137 136 133 128 126 124 118 115 111 113 124 131 131 130 125 117 109 101 95 86 76 74 88 114 126 124 119 117 117 115 112 104 104 110 113 112 109 106 106 106 105 102 99 97 95 89 86 86 87
151 152 151 153 156 160 162 162 160 157 155 153 152 150 147 145 146 147 145 144 145 146 146 146 142 138 138 138 139 140 141 141 142 141 139 138 137 137 136 132 127 126 121 117 114 115 126 133 134 133 128 120 111 102 95 84 77 79 98 122 134 132 124 118 114 111 109 106 107 113 115 111 108 109 110 107 106 105 102 99 99 96 92 89 88
151 151 151 154 156 160 163 162 160 159 157 154 154 152 149 149 150 148 145 145 145 145 144 144 141 138 140 140 140 140 139 137 137 137 136 135 133 134 137 136 130 125 123 121 119 120 130 137 138 137 132 125 113 104 95 83 80 84 102 126 139 138 128 120 114 110 109 108 109 112 114 114 113 111 111 110 109 108 104 102 101 98 97 95 92
150 151 152 154 155 159 162 162 162 160 158 157 157 155 153 153 152 149 146 146 144 144 143 141 139 140 143 142 140 139 138 134 133 134 131 130 128 130 135 137 135 130 128 124 121 121 128 137 142 142 137 128 116 107 97 85 84 89 101 127 144 145 132 121 115 110 109 110 109 110 115 122 123 113 110 110 111 112 108 106 103 100 99 98 95
150 151 152 154 156 159 161 162 163 160 160 160 159 157 155 155 154 150 147 146 145 144 143 140 140 141 143 144 142 139 137 136 134 133 129 127 125 126 131 133 135 134 134 133 127 123 129 136 141 144 142 132 120 112 101 90 87 93 103 127 147 148 139 125 115 112 110 110 110 111 113 119 120 113 112 111 111 111 109 107 105 104 102 99 95
150 151 151 155 157 161 162 162 164 162 162 160 159 159 157 158 155 150 148 148 146 145 142 141 141 141 143 144 141 138 138 139 136 131 127 127 126 125 128 132 137 139 139 140 136 132 134 137 140 144 145 140 130 121 108 93 90 95 102 127 151 152 146 132 119 114 111 112 112 113 114 116 116 115 114 111 110 107 104 105 105 103 101 99 97
148 150 152 156 158 162 163 163 165 162 163 160 161 161 158 159 154 150 150 148 145 143 142 142 143 142 143 140 136 136 137 137 133 129 126 127 127 127 128 130 136 140 143 144 142 143 143 142 144 145 146 146 142 130 112 95 92 99 98 117 151 157 152 140 124 115 113 114 114 115 117 116 115 115 113 106 104 103 102 105 104 103 101 100 99
146 151 153 158 160 163 165 165 165 163 164 162 161 160 158 157 152 151 151 148 144 141 141 142 144 144 143 138 136 135 134 134 131 128 125 124 126 127 128 127 133 138 139 144 147 151 151 145 146 147 145 146 147 135 114 98 96 103 101 112 145 159 158 147 130 119 117 115 115 119 120 118 115 112 111 106 105 104 104 102 98 98 97 99 100
147 152 156 160 161 163 165 165 165 165 165 163 160 158 156 155 153 154 151 147 142 138 140 142 146 147 146 143 141 139 137 136 131 128 123 121 121 122 122 125 132 133 129 136 144 145 139 131 133 137 137 139 145 136 116 104 104 106 105 120 146 157 159 151 136 127 123 118 119 121 123 122 119 113 109 107 105 102 105 105 101 101 100 100 98
150 153 158 161 160 162 164 163 163 165 164 162 159 156 157 157 156 156 151 144 139 138 140 143 149 150 150 149 146 143 140 137 132 129 127 124 120 118 120 123 127 124 120 121 126 124 118 116 118 124 132 135 139 134 119 112 116 112 106 123 149 157 158 155 142 134 128 124 123 124 126 124 120 113 105 105 96 89 100 106 102 101 96 94 94
152 155 158 161 160 160 162 162 162 164 164 161 159 160 161 160 160 157 150 145 144 146 148 151 153 150 150 152 149 146 139 133 130 131 131 128 124 121 123 125 124 120 117 117 116 116 113 116 119 123 134 137 138 134 125 123 126 121 112 122 147 157 159 156 146 139 134 130 130 129 127 123 120 116 112 110 92 77 93 103 99 94 91 89 93
153 157 159 160 160 160 162 163 164 165 163 161 162 164 164 163 162 159 153 151 152 153 157 157 152 148 150 153 150 145 139 134 134 139 139 137 131 129 130 130 128 126 124 124 120 114 110 112 115 123 135 140 142 137 131 135 133 126 121 125 144 157 161 158 151 144 140 137 134 129 126 126 124 121 118 108 94 83 86 103 106 96 94 92 91
154 158 160 159 158 160 162 164 166 167 165 164 166 167 166 164 163 162 158 157 157 158 161 158 150 150 153 153 152 150 150 147 149 154 153 148 140 136 134 131 132 131 128 124 116 109 107 110 114 125 137 143 144 139 138 147 142 133 131 132 144 158 163 160 154 150 145 141 138 135 137 135 129 125 120 107 105 95 73 92 107 102 102 98 91
155 159 160 158 159 161 162 164 167 169 168 167 168 169 168 167 165 165 163 161 163 163 163 159 154 155 156 155 155 157 161 160 161 162 160 156 147 139 132 127 128 126 122 118 112 106 108 114 120 130 140 145 142 138 142 150 149 145 145 144 148 160 165 162 159 155 147 144 144 146 145 136 131 129 123 114 112 95 66 85 102 108 106 96 91
155 159 160 159 161 162 165 167 169 172 171 170 170 170 171 170 168 168 168 166 169 169 165 163 160 159 159 159 159 162 167 170 169 166 165 162 155 146 135 130 129 122 114 107 104 103 111 122 132 143 147 148 136 118 115 131 148 154 156 153 155 164 167 166 164 158 148 147 147 146 140 135 135 134 127 121 114 92 83 89 90 96 97 90 87
156 158 162 163 163 164 168 170 173 177 175 174 173 172 172 171 169 170 171 172 175 175 170 167 166 163 160 162 163 167 172 175 172 168 170 169 164 157 147 144 136 126 115 104 102 101 110 136 154 164 161 151 123 89 80 106 141 158 164 159 160 168 171 171 167 158 153 151 147 143 140 139 142 139 130 121 108 100 99 91 81 81 85 89 90
163 161 162 163 164 165 171 174 177 178 176 175 175 173 172 173 172 172 174 177 179 179 176 174 172 169 166 169 172 176 180 181 176 173 176 174 170 166 159 153 145 134 122 112 111 105 111 147 168 176 163 140 104 86 78 108 136 151 160 155 159 171 174 173 167 161 158 155 149 144 143 143 147 144 133 121 106 109 116 102 82 78 80 84 88
170 164 162 162 163 167 173 177 178 177 176 176 176 174 174 176 175 176 180 180 181 182 182 180 179 177 174 177 180 184 190 188 183 180 180 179 175 174 173 167 161 158 130 119 122 115 124 150 160 156 138 124 110 107 107 128 138 144 154 154 160 173 176 174 168 163 161 158 153 147 145 145 152 150 135 127 113 112 124 113 85 81 88 88 86
171 164 163 163 164 169 174 178 178 177 178 177 178 177 178 180 179 181 186 184 183 185 183 183 184 184 184 186 186 192 199 196 191 187 184 185 183 182 186 187 192 195 150 127 128 118 125 144 145 124 113 116 118 119 127 142 144 148 161 164 168 175 177 174 169 165 163 162 157 150 148 148 155 150 133 130 116 112 128 130 102 93 104 99 89
172 166 165 166 167 170 173 177 178 178 180 180 181 182 183 184 184 186 189 188 189 190 188 188 189 190 194 196 197 201 202 199 197 194 190 191 194 195 198 199 206 197 151 133 134 125 122 136 132 112 108 114 118 124 136 150 152 156 167 175 179 179 176 173 169 167 166 166 159 152 152 150 152 146 128 125 115 111 118 133 119 87 94 103 86
174 170 168 170 170 171 172 176 179 181 184 185 185 187 188 189 191 191 190 191 193 197 196 194 194 196 201 204 207 207 203 202 201 198 193 195 200 198 191 187 189 177 146 138 141 132 124 127 125 118 119 121 124 132 145 154 158 163 170 178 181 178 172 170 169 168 169 168 160 154 157 155 154 151 131 114 110 109 106 115 118 77 76 88 85
173 172 173 174 173 173 172 174 179 182 184 186 188 191 193 194 197 195 193 194 196 202 202 200 200 202 208 210 211 208 206 206 202 197 190 190 195 187 179 174 177 174 155 148 144 136 132 130 126 126 131 136 136 143 151 153 157 163 168 174 175 171 168 166 167 170 171 169 160 155 159 159 155 152 141 122 120 117 105 107 111 83 78 86 89
174 172 175 175 174 175 174 173 177 180 182 187 191 196 199 199 200 197 196 198 200 204 205 204 206 207 213 213 210 208 208 207 202 198 191 187 187 181 178 177 177 178 169 158 146 143 143 140 138 136 142 150 149 150 151 149 152 155 160 167 168 167 165 164 168 172 172 168 162 160 163 164 155 146 140 136 138 133 120 118 118 108 106 116 119
177 172 173 173 173 176 177 174 174 178 182 188 195 199 203 202 201 200 199 201 205 209 209 208 208 209 213 212 208 208 208 207 204 203 198 191 190 184 180 180 180 179 175 164 151 149 147 147 152 151 151 157 157 155 154 153 152 150 151 156 160 165 166 165 169 172 170 168 166 167 169 169 164 155 146 141 143 139 132 132 132 137 144 143 147
182 177 173 172 174 177 178 173 172 178 182 189 196 201 204 204 202 200 200 204 210 214 212 208 209 210 213 209 208 211 211 210 207 207 202 196 197 192 185 183 181 178 175 168 156 151 153 153 157 161 160 159 161 160 155 151 149 148 151 154 156 162 166 166 168 167 166 169 172 172 171 169 167 166 163 155 152 149 144 147 147 153 161 157 157
186 183 176 173 174 176 175 173 172 177 182 187 194 200 204 204 202 201 202 204 209 214 211 210 213 217 217 212 212 213 214 214 213 212 205 197 201 199 193 188 181 178 174 170 161 156 164 165 160 164 169 164 164 163 155 146 140 141 145 149 156 161 163 165 165 162 161 167 171 171 167 162 157 158 164 166 163 157 149 151 159 166 186 220 316
187 182 174 171 170 171 172 173 174 175 179 184 190 196 202 203 202 202 203 204 206 209 209 213 217 219 221 218 217 217 216 216 216 216 206 198 204 202 197 192 186 182 175 173 166 161 170 176 170 168 170 165 164 162 155 146 137 132 130 129 138 147 154 162 166 164 161 162 164 167 164 157 151 147 149 156 156 148 140 145 160 165 176 267 350
183 175 170 167 166 168 171 174 176 176 177 182 188 193 196 199 202 199 199 202 205 206 208 214 216 218 227 223 220 221 217 215 214 213 207 205 210 209 202 195 195 189 183 186 175 165 172 177 174 172 166 156 153 155 154 148 135 120 112 111 113 124 143 160 167 166 163 164 164 164 163 158 153 148 149 158 159 152 150 154 162 160 150 359 14
176 168 166 167 169 170 172 175 177 179 181 184 188 192 194 195 198 196 195 198 202 203 205 212 217 221 226 222 223 226 220 215 216 215 215 215 212 212 210 202 194 188 192 196 180 167 171 173 170 169 163 151 147 146 148 145 131 114 104 98 97 106 129 149 157 161 161 167 172 167 162 161 154 151 158 165 162 162 166 162 159 156 104 72 60
163 162 165 174 175 172 174 177 179 182 186 189 190 193 196 195 195 194 192 195 199 201 203 211 219 220 217 216 221 223 218 216 217 218 222 221 215 210 210 203 191 183 182 183 176 169 168 169 168 164 158 153 149 146 146 142 130 125 120 100 86 94 107 113 122 138 146 153 166 170 173 170 152 149 166 171 161 159 160 158 150 126 100 80 53
169 175 181 184 178 172 179 183 182 184 187 193 195 194 194 193 192 193 189 191 196 199 204 212 213 211 209 210 211 210 211 213 213 218 224 222 218 210 203 197 189 181 170 168 171 170 167 167 170 166 157 152 152 154 153 149 143 136 122 103 77 79 81 75 80 80 107 134 153 170 182 169 138 139 170 172 156 147 144 145 129 108 90 66 55
182 185 184 183 179 176 184 189 188 188 190 195 197 192 188 188 191 193 190 191 195 198 202 206 203 201 201 198 193 194 202 208 209 215 220 212 205 200 190 184 180 174 167 168 170 172 172 171 172 174 164 153 155 164 167 165 155 143 115 97 80 66 30 74 76 60 58 103 117 162 181 134 117 125 154 147 131 133 133 128 113 97 79 67 71
192 191 183 181 181 182 187 191 193 192 193 196 195 187 183 186 190 190 188 189 192 194 195 197 196 194 190 184 179 184 193 199 203 204 201 190 180 176 173 171 172 172 168 168 172 174 178 178 176 181 177 169 167 174 183 181 164 155 138 128 99 89 217 138 102 63 61 82 79 94 87 98 114 124 131 123 119 125 121 114 109 95 80 79 81
198 195 188 187 185 185 186 190 194 194 195 197 193 186 184 189 191 185 182 184 182 186 191 192 191 187 179 174 172 175 179 181 187 184 174 169 166 161 164 167 173 177 172 171 177 178 181 183 181 188 193 190 184 181 188 189 179 179 186 175 155 228 175 138 123 51 70 82 75 88 89 97 112 119 120 117 117 120 116 111 108 100 92 90 90
200 195 192 193 188 186 185 188 193 193 195 196 192 186 186 191 193 189 187 188 184 187 193 192 187 180 171 168 164 157 153 152 153 151 149 153 157 160 167 171 173 176 176 179 186 185 183 184 184 192 200 200 196 191 192 191 190 199 217 218 272 230 172 155 152 151 103 84 78 90 94 101 113 118 120 125 123 118 116 115 106 102 104 100 98
199 193 194 195 192 189 186 187 191 192 194 195 190 186 188 192 193 191 190 194 195 192 191 189 185 177 168 164 157 148 143 138 134 133 133 137 143 153 164 169 170 173 178 184 188 188 188 191 187 189 198 199 201 204 205 200 199 204 207 218 262 179 171 171 163 147 119 96 96 94 99 104 113 121 126 128 123 115 111 111 109 107 108 105 101
195 194 197 196 195 192 186 186 189 190 192 192 188 186 190 194 192 191 190 191 195 190 184 183 182 175 169 167 162 156 149 141 136 134 133 133 135 145 161 168 168 172 178 183 189 192 192 193 187 186 193 197 202 212 215 210 207 208 203 192 172 153 153 155 154 142 122 125 132 109 108 105 105 119 128 126 119 117 116 113 113 113 109 105 104
196 197 199 198 197 191 184 186 189 190 191 190 188 189 193 196 194 193 189 183 182 179 176 177 178 177 177 177 173 167 160 152 147 144 143 141 140 148 164 166 164 169 176 178 187 193 191 190 188 188 190 190 194 204 215 218 213 214 211 188 166 157 143 137 149 143 127 117 114 129 125 113 108 117 128 131 129 126 118 108 104 106 109 107 107
198 200 200 199 196 188 183 185 189 191 190 189 190 193 196 199 199 196 190 182 176 173 174 176 177 178 178 175 174 173 171 165 158 152 148 147 152 165 177 172 166 172 181 180 183 186 186 188 188 187 186 186 188 192 203 214 216 218 217 205 187 177 168 166 165 157 143 128 120 123 123 120 119 122 135 141 138 130 115 103 101 104 112 114 112